owner,sensor,date,latitude,longitude,vertical_datum,direction_of_sea_water_velocity,sea_water_speed,upward_sea_water_velocity,qcFlag 
TABS,ioos:station:wmo:42044:1,1999-09-01T00:00:00Z,26.1914,-97.0507,2.0,344.2206161,21.36515153,-99999.0,'11111222,11111222,99999999' 
TABS,ioos:station:wmo:42044:1,1999-09-01T00:30:00Z,26.1914,-97.0507,2.0,338.0640182,36.29796826,-99999.0,'11111222,11111222,99999999' 
TABS,ioos:station:wmo:42044:1,1999-09-01T01:00:00Z,26.1914,-97.0507,2.0,346.3705789,25.29225178,-99999.0,'11111222,11111222,99999999' 
TABS,ioos:station:wmo:42044:1,1999-09-01T01:30:00Z,26.1914,-97.0507,2.0,331.3186956,27.00329054,-99999.0,'11111222,11111222,99999999' 
TABS,ioos:station:wmo:42044:1,1999-09-01T02:00:00Z,26.1914,-97.0507,2.0,332.9533068,23.92677371,-99999.0,'11111222,11111222,99999999' 
TABS,ioos:station:wmo:42044:1,1999-09-01T02:30:00Z,26.1914,-97.0507,2.0,331.6293102,21.00263793,-99999.0,'11111222,11111222,99999999' 
TABS,ioos:station:wmo:42044:1,1999-09-01T03:00:00Z,26.1914,-97.0507,2.0,336.1490562,22.47980649,-99999.0,'11111222,11111222,99999999' 
TABS,ioos:station:wmo:42044:1,1999-09-01T03:30:00Z,26.1914,-97.0507,2.0,330.5311612,22.42077831,-99999.0,'11111222,11111222,99999999' 
TABS,ioos:station:wmo:42044:1,1999-09-01T04:00:00Z,26.1914,-97.0507,2.0,340.2708866,22.95766974,-99999.0,'11111222,11111222,99999999' 
TABS,ioos:station:wmo:42044:1,1999-09-01T04:30:00Z,26.1914,-97.0507,2.0,335.2251278,21.33355338,-99999.0,'11111222,11111222,99999999' 
TABS,ioos:station:wmo:42044:1,1999-09-01T05:00:00Z,26.1914,-97.0507,2.0,336.5461807,22.08464851,-99999.0,'11111222,11111222,99999999' 
TABS,ioos:station:wmo:42044:1,1999-09-01T05:30:00Z,26.1914,-97.0507,2.0,334.6503659,21.93181479,-99999.0,'11111222,11111222,99999999' 
TABS,ioos:station:wmo:42044:1,1999-09-01T06:00:00Z,26.1914,-97.0507,2.0,329.5846947,23.84110945,-99999.0,'11111222,11111222,99999999' 
TABS,ioos:station:wmo:42044:1,1999-09-01T06:30:00Z,26.1914,-97.0507,2.0,333.6014559,23.1210402,-99999.0,'11111222,11111222,99999999' 
TABS,ioos:station:wmo:42044:1,1999-09-01T07:00:00Z,26.1914,-97.0507,2.0,330.7079527,25.28278861,-99999.0,'11111222,11111222,99999999' 
TABS,ioos:station:wmo:42044:1,1999-09-01T07:30:00Z,26.1914,-97.0507,2.0,324.8069055,28.43817329,-99999.0,'11111222,11111222,99999999' 
TABS,ioos:station:wmo:42044:1,1999-09-01T08:00:00Z,26.1914,-97.0507,2.0,320.1093325,28.34739671,-99999.0,'11111222,11111222,99999999' 
TABS,ioos:station:wmo:42044:1,1999-09-01T08:30:00Z,26.1914,-97.0507,2.0,324.7638327,29.18786049,-99999.0,'11111222,11111222,99999999' 
TABS,ioos:station:wmo:42044:1,1999-09-01T09:00:00Z,26.1914,-97.0507,2.0,322.7291899,33.70282629,-99999.0,'11111222,11111222,99999999' 
TABS,ioos:station:wmo:42044:1,1999-09-01T09:30:00Z,26.1914,-97.0507,2.0,324.7436802,31.75458707,-99999.0,'11111222,11111222,99999999' 
TABS,ioos:station:wmo:42044:1,1999-09-01T10:00:00Z,26.1914,-97.0507,2.0,323.3492069,31.94623295,-99999.0,'11111222,11111222,99999999' 
TABS,ioos:station:wmo:42044:1,1999-09-01T10:30:00Z,26.1914,-97.0507,2.0,328.946012,31.48203456,-99999.0,'11111222,11111222,99999999' 
TABS,ioos:station:wmo:42044:1,1999-09-01T11:00:00Z,26.1914,-97.0507,2.0,333.9252708,30.8499222,-99999.0,'11111222,11111222,99999999' 
TABS,ioos:station:wmo:42044:1,1999-09-01T11:30:00Z,26.1914,-97.0507,2.0,337.4039188,33.72923361,-99999.0,'11111222,11111222,99999999' 
TABS,ioos:station:wmo:42044:1,1999-09-01T12:00:00Z,26.1914,-97.0507,2.0,341.2430961,34.30176818,-99999.0,'11111222,11111222,99999999' 
TABS,ioos:station:wmo:42044:1,1999-09-01T12:30:00Z,26.1914,-97.0507,2.0,344.937725,32.0926113,-99999.0,'11111222,11111222,99999999' 
TABS,ioos:station:wmo:42044:1,1999-09-01T13:00:00Z,26.1914,-97.0507,2.0,356.2771463,34.34247807,-99999.0,'11111222,11111222,99999999' 
TABS,ioos:station:wmo:42044:1,1999-09-01T13:30:00Z,26.1914,-97.0507,2.0,346.9284529,32.27636287,-99999.0,'11111222,11111222,99999999' 
TABS,ioos:station:wmo:42044:1,1999-09-01T14:00:00Z,26.1914,-97.0507,2.0,354.6817663,30.53144117,-99999.0,'11111222,11111222,99999999' 
TABS,ioos:station:wmo:42044:1,1999-09-01T14:30:00Z,26.1914,-97.0507,2.0,341.37432,28.46065705,-99999.0,'11111222,11111222,99999999' 
TABS,ioos:station:wmo:42044:1,1999-09-01T15:00:00Z,26.1914,-97.0507,2.0,17.90627278,45.56719983,-99999.0,'11111222,11111222,99999999' 
TABS,ioos:station:wmo:42044:1,1999-09-01T15:30:00Z,26.1914,-97.0507,2.0,355.0882988,33.05138121,-99999.0,'11111222,11111222,99999999' 
TABS,ioos:station:wmo:42044:1,1999-09-01T16:00:00Z,26.1914,-97.0507,2.0,7.542881913,38.62420226,-99999.0,'11111222,11111222,99999999' 
TABS,ioos:station:wmo:42044:1,1999-09-01T16:30:00Z,26.1914,-97.0507,2.0,12.02527268,35.03887698,-99999.0,'11111222,11111222,99999999' 
TABS,ioos:station:wmo:42044:1,1999-09-01T17:00:00Z,26.1914,-97.0507,2.0,7.362891462,30.19899667,-99999.0,'11111222,11111222,99999999' 
TABS,ioos:station:wmo:42044:1,1999-09-01T17:30:00Z,26.1914,-97.0507,2.0,15.296722,32.75023206,-99999.0,'11111222,11111222,99999999' 
TABS,ioos:station:wmo:42044:1,1999-09-01T18:00:00Z,26.1914,-97.0507,2.0,1.673590708,25.34080701,-99999.0,'11111222,11111222,99999999' 
TABS,ioos:station:wmo:42044:1,1999-09-01T18:30:00Z,26.1914,-97.0507,2.0,8.627174868,31.79978774,-99999.0,'11111222,11111222,99999999' 
TABS,ioos:station:wmo:42044:1,1999-09-01T19:00:00Z,26.1914,-97.0507,2.0,7.810606598,27.37394382,-99999.0,'11111222,11111222,99999999' 
TABS,ioos:station:wmo:42044:1,1999-09-01T19:30:00Z,26.1914,-97.0507,2.0,1.315376147,45.31193662,-99999.0,'11111222,11111222,99999999' 
TABS,ioos:station:wmo:42044:1,1999-09-01T20:00:00Z,26.1914,-97.0507,2.0,5.362537971,38.30764937,-99999.0,'11111222,11111222,99999999' 
TABS,ioos:station:wmo:42044:1,1999-09-01T20:30:00Z,26.1914,-97.0507,2.0,0.620492744,27.71162391,-99999.0,'11111222,11111222,99999999' 
TABS,ioos:station:wmo:42044:1,1999-09-01T21:00:00Z,26.1914,-97.0507,2.0,350.9813196,21.88051645,-99999.0,'11111222,11111222,99999999' 
TABS,ioos:station:wmo:42044:1,1999-09-01T21:30:00Z,26.1914,-97.0507,2.0,345.5897768,21.5376229,-99999.0,'11111222,11111222,99999999' 
TABS,ioos:station:wmo:42044:1,1999-09-01T22:00:00Z,26.1914,-97.0507,2.0,333.4352214,20.66126811,-99999.0,'11111222,11111222,99999999' 
TABS,ioos:station:wmo:42044:1,1999-09-01T22:30:00Z,26.1914,-97.0507,2.0,327.7650623,19.55393822,-99999.0,'11111222,11111222,99999999' 
TABS,ioos:station:wmo:42044:1,1999-09-01T23:00:00Z,26.1914,-97.0507,2.0,330.270186,14.41779803,-99999.0,'11111222,11111222,99999999' 
TABS,ioos:station:wmo:42044:1,1999-09-01T23:30:00Z,26.1914,-97.0507,2.0,325.4463167,22.07402999,-99999.0,'11111222,11111222,99999999' 
TABS,ioos:station:wmo:42044:1,1999-09-02T00:00:00Z,26.1914,-97.0507,2.0,324.4626158,12.81746465,-99999.0,'11111222,11111222,99999999' 
TABS,ioos:station:wmo:42044:1,1999-09-02T00:30:00Z,26.1914,-97.0507,2.0,324.6239802,23.94013367,-99999.0,'11111222,11111222,99999999' 
TABS,ioos:station:wmo:42044:1,1999-09-02T01:00:00Z,26.1914,-97.0507,2.0,323.473711,15.02026964,-99999.0,'11111222,11111222,99999999' 
TABS,ioos:station:wmo:42044:1,1999-09-02T01:30:00Z,26.1914,-97.0507,2.0,327.1063203,17.56627735,-99999.0,'11111222,11111222,99999999' 
TABS,ioos:station:wmo:42044:1,1999-09-02T02:00:00Z,26.1914,-97.0507,2.0,332.1199912,17.53539278,-99999.0,'11111222,11111222,99999999' 
TABS,ioos:station:wmo:42044:1,1999-09-02T02:30:00Z,26.1914,-97.0507,2.0,328.4522946,17.66012741,-99999.0,'11111222,11111222,99999999' 
TABS,ioos:station:wmo:42044:1,1999-09-02T03:00:00Z,26.1914,-97.0507,2.0,325.7898476,18.01740547,-99999.0,'11111222,11111222,99999999' 
TABS,ioos:station:wmo:42044:1,1999-09-02T03:30:00Z,26.1914,-97.0507,2.0,325.8688156,16.20049999,-99999.0,'11111222,11111222,99999999' 
TABS,ioos:station:wmo:42044:1,1999-09-02T04:00:00Z,26.1914,-97.0507,2.0,326.4600531,15.90885602,-99999.0,'11111222,11111222,99999999' 
TABS,ioos:station:wmo:42044:1,1999-09-02T04:30:00Z,26.1914,-97.0507,2.0,320.1392537,21.15682396,-99999.0,'11111222,11111222,99999999' 
TABS,ioos:station:wmo:42044:1,1999-09-02T05:00:00Z,26.1914,-97.0507,2.0,315.8021108,22.23361419,-99999.0,'11111222,11111222,99999999' 
TABS,ioos:station:wmo:42044:1,1999-09-02T05:30:00Z,26.1914,-97.0507,2.0,320.1947324,23.27454403,-99999.0,'11111222,11111222,99999999' 
TABS,ioos:station:wmo:42044:1,1999-09-02T06:00:00Z,26.1914,-97.0507,2.0,318.9486987,26.08343919,-99999.0,'11111222,11111222,99999999' 
TABS,ioos:station:wmo:42044:1,1999-09-02T06:30:00Z,26.1914,-97.0507,2.0,323.7769901,26.22967022,-99999.0,'11111222,11111222,99999999' 
TABS,ioos:station:wmo:42044:1,1999-09-02T07:00:00Z,26.1914,-97.0507,2.0,323.8924722,29.32259368,-99999.0,'11111222,11111222,99999999' 
TABS,ioos:station:wmo:42044:1,1999-09-02T07:30:00Z,26.1914,-97.0507,2.0,327.7311083,31.54163122,-99999.0,'11111222,11111222,99999999' 
TABS,ioos:station:wmo:42044:1,1999-09-02T08:00:00Z,26.1914,-97.0507,2.0,326.2379518,32.98249991,-99999.0,'11111222,11111222,99999999' 
TABS,ioos:station:wmo:42044:1,1999-09-02T08:30:00Z,26.1914,-97.0507,2.0,330.0498054,34.91228151,-99999.0,'11111222,11111222,99999999' 
TABS,ioos:station:wmo:42044:1,1999-09-02T09:00:00Z,26.1914,-97.0507,2.0,332.4265461,33.78775074,-99999.0,'11111222,11111222,99999999' 
TABS,ioos:station:wmo:42044:1,1999-09-02T09:30:00Z,26.1914,-97.0507,2.0,331.8619097,36.32296519,-99999.0,'11111222,11111222,99999999' 
TABS,ioos:station:wmo:42044:1,1999-09-02T10:00:00Z,26.1914,-97.0507,2.0,336.8341087,37.11245613,-99999.0,'11111222,11111222,99999999' 
TABS,ioos:station:wmo:42044:1,1999-09-02T10:30:00Z,26.1914,-97.0507,2.0,334.6133534,35.45364438,-99999.0,'11111222,11111222,99999999' 
TABS,ioos:station:wmo:42044:1,1999-09-02T11:00:00Z,26.1914,-97.0507,2.0,338.7985591,37.07981931,-99999.0,'11111222,11111222,99999999' 
TABS,ioos:station:wmo:42044:1,1999-09-02T11:30:00Z,26.1914,-97.0507,2.0,338.7802998,37.87822858,-99999.0,'11111222,11111222,99999999' 
TABS,ioos:station:wmo:42044:1,1999-09-02T12:00:00Z,26.1914,-97.0507,2.0,339.9081938,37.28936175,-99999.0,'11111222,11111222,99999999' 
TABS,ioos:station:wmo:42044:1,1999-09-02T12:30:00Z,26.1914,-97.0507,2.0,345.3462507,37.11738407,-99999.0,'11111222,11111222,99999999' 
TABS,ioos:station:wmo:42044:1,1999-09-02T13:00:00Z,26.1914,-97.0507,2.0,347.9415684,39.92088676,-99999.0,'11111222,11111222,99999999' 
TABS,ioos:station:wmo:42044:1,1999-09-02T13:30:00Z,26.1914,-97.0507,2.0,328.9382853,28.00576012,-99999.0,'11111222,11111222,99999999' 
TABS,ioos:station:wmo:42044:1,1999-09-02T14:00:00Z,26.1914,-97.0507,2.0,344.937725,32.0926113,-99999.0,'11111222,11111222,99999999' 
TABS,ioos:station:wmo:42044:1,1999-09-02T14:30:00Z,26.1914,-97.0507,2.0,358.7228177,46.65159376,-99999.0,'11111222,11111222,99999999' 
TABS,ioos:station:wmo:42044:1,1999-09-02T15:00:00Z,26.1914,-97.0507,2.0,353.8565232,38.96378447,-99999.0,'11111222,11111222,99999999' 
TABS,ioos:station:wmo:42044:1,1999-09-02T15:30:00Z,26.1914,-97.0507,2.0,355.4772476,43.49545379,-99999.0,'11111222,11111222,99999999' 
TABS,ioos:station:wmo:42044:1,1999-09-02T16:00:00Z,26.1914,-97.0507,2.0,359.1394058,29.95338044,-99999.0,'11111222,11144222,99999999' 
TABS,ioos:station:wmo:42044:1,1999-09-02T16:30:00Z,26.1914,-97.0507,2.0,8.813575288,54.432708,-99999.0,'11111222,11111222,99999999' 
TABS,ioos:station:wmo:42044:1,1999-09-02T17:00:00Z,26.1914,-97.0507,2.0,0.000210459,25.33,-99999.0,'11111222,11111222,99999999' 
TABS,ioos:station:wmo:42044:1,1999-09-02T17:30:00Z,26.1914,-97.0507,2.0,359.6505668,24.58045768,-99999.0,'11111222,11144222,99999999' 
TABS,ioos:station:wmo:42044:1,1999-09-02T18:00:00Z,26.1914,-97.0507,2.0,357.7198437,22.36771334,-99999.0,'11111222,11111222,99999999' 
TABS,ioos:station:wmo:42044:1,1999-09-02T18:30:00Z,26.1914,-97.0507,2.0,0.691040873,24.88180862,-99999.0,'11111222,11111222,99999999' 
TABS,ioos:station:wmo:42044:1,1999-09-02T19:00:00Z,26.1914,-97.0507,2.0,2.57912883,23.11340953,-99999.0,'11111222,11111222,99999999' 
TABS,ioos:station:wmo:42044:1,1999-09-02T19:30:00Z,26.1914,-97.0507,2.0,5.04194389,23.78201421,-99999.0,'11111222,11111222,99999999' 
TABS,ioos:station:wmo:42044:1,1999-09-02T20:00:00Z,26.1914,-97.0507,2.0,10.22277909,21.80615739,-99999.0,'11111222,11111222,99999999' 
TABS,ioos:station:wmo:42044:1,1999-09-02T20:30:00Z,26.1914,-97.0507,2.0,10.53817761,21.9807302,-99999.0,'11111222,11111222,99999999' 
TABS,ioos:station:wmo:42044:1,1999-09-02T21:00:00Z,26.1914,-97.0507,2.0,9.514736944,28.85696623,-99999.0,'11111222,11111222,99999999' 
TABS,ioos:station:wmo:42044:1,1999-09-02T21:30:00Z,26.1914,-97.0507,2.0,11.31011649,14.43022522,-99999.0,'11111222,11111222,99999999' 
TABS,ioos:station:wmo:42044:1,1999-09-02T22:00:00Z,26.1914,-97.0507,2.0,0.000210459,14.9,-99999.0,'11111222,11111222,99999999' 
TABS,ioos:station:wmo:42044:1,1999-09-02T22:30:00Z,26.1914,-97.0507,2.0,351.8132092,15.6595945,-99999.0,'11111222,11111222,99999999' 
TABS,ioos:station:wmo:42044:1,1999-09-02T23:00:00Z,26.1914,-97.0507,2.0,336.0782587,15.80792839,-99999.0,'11111222,11111222,99999999' 
TABS,ioos:station:wmo:42044:1,1999-09-02T23:30:00Z,26.1914,-97.0507,2.0,319.3939861,12.3682901,-99999.0,'11111222,11111222,99999999' 
TABS,ioos:station:wmo:42044:1,1999-09-03T00:00:00Z,26.1914,-97.0507,2.0,328.5566318,46.27537142,-99999.0,'11111222,11111222,99999999' 
TABS,ioos:station:wmo:42044:1,1999-09-03T00:30:00Z,26.1914,-97.0507,2.0,306.5088771,14.27028381,-99999.0,'11111222,11111222,99999999' 
TABS,ioos:station:wmo:42044:1,1999-09-03T01:00:00Z,26.1914,-97.0507,2.0,311.3492577,14.87944219,-99999.0,'11111222,11111222,99999999' 
TABS,ioos:station:wmo:42044:1,1999-09-03T01:30:00Z,26.1914,-97.0507,2.0,299.8314563,16.48423489,-99999.0,'11111222,11111222,99999999' 
TABS,ioos:station:wmo:42044:1,1999-09-03T02:00:00Z,26.1914,-97.0507,2.0,301.5937022,15.91945979,-99999.0,'11111222,11111222,99999999' 
TABS,ioos:station:wmo:42044:1,1999-09-03T02:30:00Z,26.1914,-97.0507,2.0,296.5799225,17.65599332,-99999.0,'11111222,11111222,99999999' 
TABS,ioos:station:wmo:42044:1,1999-09-03T03:00:00Z,26.1914,-97.0507,2.0,299.6828677,15.95335701,-99999.0,'11111222,11111222,99999999' 
TABS,ioos:station:wmo:42044:1,1999-09-03T03:30:00Z,26.1914,-97.0507,2.0,303.6904097,16.65764689,-99999.0,'11111222,11111222,99999999' 
TABS,ioos:station:wmo:42044:1,1999-09-03T04:00:00Z,26.1914,-97.0507,2.0,300.3051222,15.35871414,-99999.0,'11111222,11111222,99999999' 
TABS,ioos:station:wmo:42044:1,1999-09-03T04:30:00Z,26.1914,-97.0507,2.0,305.2285912,15.4983612,-99999.0,'11111222,11111222,99999999' 
TABS,ioos:station:wmo:42044:1,1999-09-03T05:00:00Z,26.1914,-97.0507,2.0,305.4290958,17.73360933,-99999.0,'11111222,11111222,99999999' 
TABS,ioos:station:wmo:42044:1,1999-09-03T05:30:00Z,26.1914,-97.0507,2.0,309.5146301,19.89718824,-99999.0,'11111222,11111222,99999999' 
TABS,ioos:station:wmo:42044:1,1999-09-03T06:00:00Z,26.1914,-97.0507,2.0,317.890796,20.89330275,-99999.0,'11111222,11111222,99999999' 
TABS,ioos:station:wmo:42044:1,1999-09-03T06:30:00Z,26.1914,-97.0507,2.0,319.7085911,21.88101003,-99999.0,'11111222,11111222,99999999' 
TABS,ioos:station:wmo:42044:1,1999-09-03T07:00:00Z,26.1914,-97.0507,2.0,323.0541186,25.53802263,-99999.0,'11111222,11111222,99999999' 
TABS,ioos:station:wmo:42044:1,1999-09-03T07:30:00Z,26.1914,-97.0507,2.0,329.3433668,23.37730737,-99999.0,'11111222,11111222,99999999' 
TABS,ioos:station:wmo:42044:1,1999-09-03T08:00:00Z,26.1914,-97.0507,2.0,331.8209977,26.19475138,-99999.0,'11111222,11111222,99999999' 
TABS,ioos:station:wmo:42044:1,1999-09-03T08:30:00Z,26.1914,-97.0507,2.0,333.1401391,26.05053742,-99999.0,'11111222,11111222,99999999' 
TABS,ioos:station:wmo:42044:1,1999-09-03T09:00:00Z,26.1914,-97.0507,2.0,334.1046806,28.32397041,-99999.0,'11111222,11111222,99999999' 
TABS,ioos:station:wmo:42044:1,1999-09-03T09:30:00Z,26.1914,-97.0507,2.0,340.9024095,28.69959059,-99999.0,'11111222,11111222,99999999' 
TABS,ioos:station:wmo:42044:1,1999-09-03T10:00:00Z,26.1914,-97.0507,2.0,341.1232268,29.91919952,-99999.0,'11111222,11111222,99999999' 
TABS,ioos:station:wmo:42044:1,1999-09-03T10:30:00Z,26.1914,-97.0507,2.0,344.9517803,28.6940168,-99999.0,'11111222,11111222,99999999' 
TABS,ioos:station:wmo:42044:1,1999-09-03T11:00:00Z,26.1914,-97.0507,2.0,348.8862902,33.25364642,-99999.0,'11111222,11111222,99999999' 
TABS,ioos:station:wmo:42044:1,1999-09-03T11:30:00Z,26.1914,-97.0507,2.0,349.1804333,30.95021971,-99999.0,'11111222,11111222,99999999' 
TABS,ioos:station:wmo:42044:1,1999-09-03T12:00:00Z,26.1914,-97.0507,2.0,348.7914902,32.20428077,-99999.0,'11111222,11111222,99999999' 
TABS,ioos:station:wmo:42044:1,1999-09-03T12:30:00Z,26.1914,-97.0507,2.0,351.5298303,32.38323332,-99999.0,'11111222,11111222,99999999' 
TABS,ioos:station:wmo:42044:1,1999-09-03T13:00:00Z,26.1914,-97.0507,2.0,352.372982,33.67796461,-99999.0,'11111222,11111222,99999999' 
TABS,ioos:station:wmo:42044:1,1999-09-03T13:30:00Z,26.1914,-97.0507,2.0,351.5687443,32.53160463,-99999.0,'11111222,11111222,99999999' 
TABS,ioos:station:wmo:42044:1,1999-09-03T14:00:00Z,26.1914,-97.0507,2.0,353.828939,27.72064213,-99999.0,'11111222,11111222,99999999' 
TABS,ioos:station:wmo:42044:1,1999-09-03T14:30:00Z,26.1914,-97.0507,2.0,4.837538384,40.67487923,-99999.0,'11111222,11111222,99999999' 
TABS,ioos:station:wmo:42044:1,1999-09-03T15:00:00Z,26.1914,-97.0507,2.0,355.3553714,31.24260713,-99999.0,'11111222,11111222,99999999' 
TABS,ioos:station:wmo:42044:1,1999-09-03T15:30:00Z,26.1914,-97.0507,2.0,0.000210459,29.35,-99999.0,'11111222,11111222,99999999' 
TABS,ioos:station:wmo:42044:1,1999-09-03T16:00:00Z,26.1914,-97.0507,2.0,22.38208937,52.05121805,-99999.0,'11111222,11111222,99999999' 
TABS,ioos:station:wmo:42044:1,1999-09-03T16:30:00Z,26.1914,-97.0507,2.0,30.85860673,56.92905146,-99999.0,'11111222,11111222,99999999' 
TABS,ioos:station:wmo:42044:1,1999-09-03T17:00:00Z,26.1914,-97.0507,2.0,12.42542184,27.00246285,-99999.0,'11111222,11111222,99999999' 
TABS,ioos:station:wmo:42044:1,1999-09-03T17:30:00Z,26.1914,-97.0507,2.0,19.45826656,26.38708965,-99999.0,'11111222,11111222,99999999' 
TABS,ioos:station:wmo:42044:1,1999-09-03T18:00:00Z,26.1914,-97.0507,2.0,17.12668978,24.78923355,-99999.0,'11111222,11111222,99999999' 
TABS,ioos:station:wmo:42044:1,1999-09-03T18:30:00Z,26.1914,-97.0507,2.0,17.83943622,26.76696471,-99999.0,'11111222,11111222,99999999' 
TABS,ioos:station:wmo:42044:1,1999-09-03T19:00:00Z,26.1914,-97.0507,2.0,13.35584754,24.5026774,-99999.0,'11111222,11111222,99999999' 
TABS,ioos:station:wmo:42044:1,1999-09-03T19:30:00Z,26.1914,-97.0507,2.0,17.98268329,35.24152097,-99999.0,'11111222,11111222,99999999' 
TABS,ioos:station:wmo:42044:1,1999-09-03T20:00:00Z,26.1914,-97.0507,2.0,15.73772265,28.02036581,-99999.0,'11111222,11111222,99999999' 
TABS,ioos:station:wmo:42044:1,1999-09-03T20:30:00Z,26.1914,-97.0507,2.0,10.64677459,27.44240879,-99999.0,'11111222,11111222,99999999' 
TABS,ioos:station:wmo:42044:1,1999-09-03T21:00:00Z,26.1914,-97.0507,2.0,9.571600444,24.17655889,-99999.0,'11111222,11111222,99999999' 
TABS,ioos:station:wmo:42044:1,1999-09-03T21:30:00Z,26.1914,-97.0507,2.0,4.801665787,21.38504618,-99999.0,'11111222,11111222,99999999' 
TABS,ioos:station:wmo:42044:1,1999-09-03T22:00:00Z,26.1914,-97.0507,2.0,358.5938895,18.3355229,-99999.0,'11111222,11111222,99999999' 
TABS,ioos:station:wmo:42044:1,1999-09-03T22:30:00Z,26.1914,-97.0507,2.0,357.8240955,15.80139551,-99999.0,'11111222,11111222,99999999' 
TABS,ioos:station:wmo:42044:1,1999-09-03T23:00:00Z,26.1914,-97.0507,2.0,1.632640072,15.79641098,-99999.0,'11111222,11111222,99999999' 
TABS,ioos:station:wmo:42044:1,1999-09-03T23:30:00Z,26.1914,-97.0507,2.0,350.3589449,14.21071779,-99999.0,'11111222,11111222,99999999' 
TABS,ioos:station:wmo:42044:1,1999-09-04T00:00:00Z,26.1914,-97.0507,2.0,353.6364996,40.32849241,-99999.0,'11111222,11111222,99999999' 
TABS,ioos:station:wmo:42044:1,1999-09-04T00:30:00Z,26.1914,-97.0507,2.0,349.5542095,15.60869629,-99999.0,'11111222,11111222,99999999' 
TABS,ioos:station:wmo:42044:1,1999-09-04T01:00:00Z,26.1914,-97.0507,2.0,346.6197539,15.46993536,-99999.0,'11111222,11111222,99999999' 
TABS,ioos:station:wmo:42044:1,1999-09-04T01:30:00Z,26.1914,-97.0507,2.0,345.5993283,16.76682737,-99999.0,'11111222,11111222,99999999' 
TABS,ioos:station:wmo:42044:1,1999-09-04T02:00:00Z,26.1914,-97.0507,2.0,345.2066828,16.33135022,-99999.0,'11111222,11111222,99999999' 
TABS,ioos:station:wmo:42044:1,1999-09-04T02:30:00Z,26.1914,-97.0507,2.0,349.1606168,17.44119549,-99999.0,'11111222,11111222,99999999' 
TABS,ioos:station:wmo:42044:1,1999-09-04T03:00:00Z,26.1914,-97.0507,2.0,348.4898832,17.94081381,-99999.0,'11111222,11111222,99999999' 
TABS,ioos:station:wmo:42044:1,1999-09-04T03:30:00Z,26.1914,-97.0507,2.0,342.8975215,20.26619106,-99999.0,'11111222,11111222,99999999' 
TABS,ioos:station:wmo:42044:1,1999-09-04T04:00:00Z,26.1914,-97.0507,2.0,340.9397944,21.43519536,-99999.0,'11111222,11111222,99999999' 
TABS,ioos:station:wmo:42044:1,1999-09-04T04:30:00Z,26.1914,-97.0507,2.0,344.5222997,24.581491,-99999.0,'11111222,11111222,99999999' 
TABS,ioos:station:wmo:42044:1,1999-09-04T05:00:00Z,26.1914,-97.0507,2.0,346.0504881,24.10079252,-99999.0,'11111222,11111222,99999999' 
TABS,ioos:station:wmo:42044:1,1999-09-04T05:30:00Z,26.1914,-97.0507,2.0,342.5620383,24.35954844,-99999.0,'11111222,11111222,99999999' 
TABS,ioos:station:wmo:42044:1,1999-09-04T06:00:00Z,26.1914,-97.0507,2.0,341.0805816,28.0345947,-99999.0,'11111222,11111222,99999999' 
TABS,ioos:station:wmo:42044:1,1999-09-04T06:30:00Z,26.1914,-97.0507,2.0,344.720241,28.26933674,-99999.0,'11111222,11111222,99999999' 
TABS,ioos:station:wmo:42044:1,1999-09-04T07:00:00Z,26.1914,-97.0507,2.0,345.6728302,27.68094832,-99999.0,'11111222,11111222,99999999' 
TABS,ioos:station:wmo:42044:1,1999-09-04T07:30:00Z,26.1914,-97.0507,2.0,351.1230059,30.91026529,-99999.0,'11111222,11111222,99999999' 
TABS,ioos:station:wmo:42044:1,1999-09-04T08:00:00Z,26.1914,-97.0507,2.0,350.0533175,29.351201,-99999.0,'11111222,11111222,99999999' 
TABS,ioos:station:wmo:42044:1,1999-09-04T08:30:00Z,26.1914,-97.0507,2.0,352.6738209,30.34776598,-99999.0,'11111222,11111222,99999999' 
TABS,ioos:station:wmo:42044:1,1999-09-04T09:00:00Z,26.1914,-97.0507,2.0,355.981317,31.81824162,-99999.0,'11111222,11111222,99999999' 
TABS,ioos:station:wmo:42044:1,1999-09-04T09:30:00Z,26.1914,-97.0507,2.0,354.5856922,31.58091196,-99999.0,'11111222,11111222,99999999' 
TABS,ioos:station:wmo:42044:1,1999-09-04T10:00:00Z,26.1914,-97.0507,2.0,4.222430791,34.36326236,-99999.0,'11111222,11111222,99999999' 
TABS,ioos:station:wmo:42044:1,1999-09-04T10:30:00Z,26.1914,-97.0507,2.0,8.941727844,35.45081804,-99999.0,'11111222,11111222,99999999' 
TABS,ioos:station:wmo:42044:1,1999-09-04T11:00:00Z,26.1914,-97.0507,2.0,10.9589729,38.40026042,-99999.0,'11111222,11111222,99999999' 
TABS,ioos:station:wmo:42044:1,1999-09-04T11:30:00Z,26.1914,-97.0507,2.0,14.97240422,39.79085322,-99999.0,'11111222,11111222,99999999' 
TABS,ioos:station:wmo:42044:1,1999-09-04T12:00:00Z,26.1914,-97.0507,2.0,21.45761819,41.14154348,-99999.0,'11111222,11111222,99999999' 
TABS,ioos:station:wmo:42044:1,1999-09-04T12:30:00Z,26.1914,-97.0507,2.0,12.53464393,43.95770353,-99999.0,'11111222,11111222,99999999' 
TABS,ioos:station:wmo:42044:1,1999-09-04T13:00:00Z,26.1914,-97.0507,2.0,10.60167838,44.57079874,-99999.0,'11111222,11111222,99999999' 
TABS,ioos:station:wmo:42044:1,1999-09-04T13:30:00Z,26.1914,-97.0507,2.0,9.031468995,36.05700625,-99999.0,'11111222,11111222,99999999' 
TABS,ioos:station:wmo:42044:1,1999-09-04T14:00:00Z,26.1914,-97.0507,2.0,9.431433534,45.46454663,-99999.0,'11111222,11111222,99999999' 
TABS,ioos:station:wmo:42044:1,1999-09-04T14:30:00Z,26.1914,-97.0507,2.0,9.005069996,60.95122312,-99999.0,'11111222,11111222,99999999' 
TABS,ioos:station:wmo:42044:1,1999-09-04T15:00:00Z,26.1914,-97.0507,2.0,6.341531164,55.31846437,-99999.0,'11111222,11111222,99999999' 
TABS,ioos:station:wmo:42044:1,1999-09-04T15:30:00Z,26.1914,-97.0507,2.0,6.538641416,52.34043943,-99999.0,'11111222,11111222,99999999' 
TABS,ioos:station:wmo:42044:1,1999-09-04T16:00:00Z,26.1914,-97.0507,2.0,13.92420886,74.30335659,-99999.0,'11111222,11111222,99999999' 